User: anonymous   Login
Location: Unspecified
(0.0000°N, 0.0000°E)
Time: 03:41:24
(UTC+01:00)
Language:

Ariane H10 - Orbit

View from above orbital plane
View from above orbital plane
View from above satellite
View from above satellite

Ground track
Ground track

The orbit data is extracted from the following two-line orbital elements,

1 21815U 91084C   17347.53640927 +.00000043 +00000-0 +44639-3 0  9993
2 21815 004.3077 009.2283 7192998 219.9755 055.0043 02.31855019216513
Epoch (UTC): 13 December 2017 12:52:25
Eccentricity: 0.7192998
inclination: 4.3077°
perigee height: 390 km
apogee height: 35079 km
right ascension of ascending node: 9.2283°
argument of perigee: 219.9755°
revolutions per day: 2.31855019
mean anomaly at epoch: 55.0043°
orbit number at epoch: 21651

The dashed part of the orbit path shows where the satellite is in the earth's shadow,  

DLR